Weather History for Redmond, OR

Change the Weather History Date:

Saturday, February 9, 2013

  Actual Average Record
Temperature  
Mean Temperature 30 °F 35 °F  
Max Temperature 44 °F 46 °F 63 °F (1954)
Min Temperature 16 °F 24 °F -6 °F (1989)
Degree Days  
Heating Degree Days 35 30  
Month to date heating degree days 261 277  
Since 1 July heating degree days 3906 4117  
Cooling Degree Days 0 0  
Month to date cooling degree days 0 0  
Year to date cooling degree days 0 0  
Moisture  
Dew Point 21 °F    
Average Humidity 73    
Maximum Humidity 96    
Minimum Humidity 49    
Precipitation  
Precipitation 0.00 in 0.03 in 0.33 in (1961)
Month to date precipitation T 0.23  
Year to date precipitation 0.41 1.20  
Sea Level Pressure  
Sea Level Pressure 30.19 in    
Wind  
Wind Speed 3 mph (South)    
Max Wind Speed 12 mph    
Max Gust Speed 15 mph    
Visibility 10 miles    
Events      
T = Trace of Precipitation, MM = Missing Value Source: NWS Daily Summary

Daily Weather History Graph

Daily Weather History Graph

Search for Another Location

Airport:

Trip Planner

Search our weather history database for the weather conditions in past years. The results will help you decide how hot, cold, wet, or windy it might be!

Date:

Astronomy

Feb. 09, 2013 Rise Set
Actual Time 7:12 AM PST 5:26 PM PST
Civil Twilight 6:42 AM PST 5:56 PM PST
Nautical Twilight 6:07 AM PST 6:30 PM PST
Astronomical Twilight 5:34 AM PST 7:04 PM PST
Moon 6:26 AM PST (2/9) 5:16 PM PST (2/9)
Length of Visible Light 11h 14m
Length of Day
10h 13m
Waning Crescent, 0% of the Moon is Illuminated
Feb 9
Waning Crescent
Feb 9
New
Feb 17
First Quarter
Feb 25
Full
Mar 4
Last Quarter

Hourly Weather History & Observations

Time (PST) Temp. Windchill Dew Point Humidity Pressure Visibility Wind Dir Wind Speed Gust Speed Precip Events Conditions
12:56 AM 19.0 °F - 15.1 °F 85% 30.18 in 10.0 mi Calm Calm - N/A   Clear
1:56 AM 17.1 °F 11.7 °F 14.0 °F 88% 30.18 in 10.0 mi South 3.5 mph - N/A   Clear
2:56 AM 19.0 °F - 15.1 °F 85% 30.17 in 10.0 mi Calm Calm - N/A   Clear
3:56 AM 16.0 °F 10.4 °F 12.9 °F 88% 30.17 in 10.0 mi SSE 3.5 mph - N/A   Clear
4:56 AM 16.0 °F 7.4 °F 12.9 °F 88% 30.18 in 10.0 mi SSE 5.8 mph - N/A   Clear
5:56 AM 17.1 °F 8.7 °F 14.0 °F 88% 30.20 in 10.0 mi South 5.8 mph - N/A   Clear
6:56 AM 16.0 °F 10.4 °F 12.9 °F 88% 30.20 in 10.0 mi SSE 3.5 mph - N/A   Clear
7:56 AM 19.9 °F 11.1 °F 16.0 °F 85% 30.21 in 10.0 mi SSE 6.9 mph - N/A   Clear
8:56 AM 25.0 °F - 19.0 °F 78% 30.20 in 10.0 mi Calm Calm - N/A   Clear
9:56 AM 30.9 °F - 19.9 °F 64% 30.19 in 10.0 mi Calm Calm - N/A   Clear
10:56 AM 36.0 °F - 21.9 °F 57% 30.20 in 10.0 mi Calm Calm - N/A   Clear
11:56 AM 39.0 °F 34.0 °F 25.0 °F 57% 30.18 in 10.0 mi NW 6.9 mph - N/A   Clear
12:56 PM 42.1 °F 38.4 °F 26.1 °F 53% 30.17 in 10.0 mi North 5.8 mph - N/A   Clear
1:56 PM 43.0 °F 38.8 °F 27.0 °F 53% 30.15 in 10.0 mi North 6.9 mph - N/A   Clear
2:56 PM 44.1 °F 40.8 °F 27.0 °F 51% 30.14 in 10.0 mi NNW 5.8 mph - N/A   Clear
3:56 PM 42.1 °F 38.4 °F 27.0 °F 55% 30.16 in 10.0 mi North 5.8 mph - N/A   Clear
4:56 PM 39.9 °F 35.8 °F 28.0 °F 63% 30.17 in 10.0 mi North 5.8 mph - N/A   Clear
5:56 PM 36.0 °F - 27.0 °F 70% 30.18 in 10.0 mi Calm Calm - N/A   Clear
6:56 PM 33.1 °F - 26.1 °F 75% 30.21 in 10.0 mi Calm Calm - N/A   Clear
7:56 PM 28.9 °F - 25.0 °F 85% 30.20 in 10.0 mi Calm Calm - N/A   Clear
8:56 PM 26.1 °F 21.9 °F 23.0 °F 88% 30.21 in 10.0 mi South 3.5 mph - N/A   Clear
9:56 PM 23.0 °F - 21.0 °F 92% 30.22 in 10.0 mi Calm Calm - N/A   Clear
10:56 PM 24.1 °F 18.2 °F 21.0 °F 88% 30.23 in 10.0 mi West 4.6 mph - N/A   Clear
11:56 PM 28.0 °F - 23.0 °F 81% 30.23 in 10.0 mi Calm Calm - N/A   Clear